Location: *
(48.8780°N, 19.2358°E)
Time: 00:56:30
(UTC+00:00)

STARLINK-45 - Pass Details

Date: 18 October 2019
Orbit: 548 x 551 km, 53.0° (Epoch: 15 November)

Event Time Altitude Azimuth Distance (km) Brightness Sun altitude
Rises 16:42:14 0° 258° (WSW) 2,715 9.3 -9.6°
Reaches altitude 10° 16:44:29 10° 262° (W) 1,823 7.9 -9.9°
Maximum altitude 16:48:36 62° 344° (NNW) 625 3.9 -10.6°
Enters shadow 16:52:07 14° 63° (ENE) 1,594 5.4 -11.2°
